Radiation Dose at Monitoring Post of Fukushima Daini Nuclear Power Station
Date,Time,MP-1(microSv/h),MP-2(microSv/h),MP-3(microSv/h),MP-4(microSv/h),MP-5(microSv/h),MP-6(microSv/h),MP-7(microSv/h),Wind Direction,Wind Velocity(m/s),Rain
2021/02/01,00:00,0.179,0.160,0.257,0.242,0.238,0.141,0.086,north-northwest,4.1,No
2021/02/01,00:10,0.178,0.161,0.255,0.242,0.239,0.142,0.086,north-northwest,4.1,No
2021/02/01,00:20,0.178,0.160,0.256,0.244,0.238,0.141,0.086,north-northwest,2.9,No
2021/02/01,00:30,0.179,0.160,0.257,0.243,0.239,0.141,0.085,north,2.9,No
2021/02/01,00:40,0.179,0.160,0.256,0.242,0.239,0.141,0.086,north,2.8,No
2021/02/01,00:50,0.179,0.160,0.255,0.243,0.238,0.141,0.086,north,3.3,No
2021/02/01,01:00,0.179,0.160,0.255,0.242,0.238,0.141,0.086,north,3.0,No
2021/02/01,01:10,0.180,0.159,0.256,0.242,0.238,0.141,0.087,north,3.1,No
2021/02/01,01:20,0.180,0.162,0.257,0.243,0.239,0.141,0.086,west-northwest,2.6,No
2021/02/01,01:30,0.179,0.160,0.256,0.242,0.239,0.141,0.086,northwest,2.6,No
2021/02/01,01:40,0.179,0.160,0.257,0.242,0.238,0.142,0.085,west-northwest,1.8,No
2021/02/01,01:50,0.180,0.160,0.256,0.243,0.239,0.141,0.086,west-northwest,1.9,No
2021/02/01,02:00,0.179,0.161,0.257,0.243,0.239,0.141,0.086,northwest,1.1,No
2021/02/01,02:10,0.179,0.160,0.256,0.243,0.238,0.142,0.086,north,1.5,No
2021/02/01,02:20,0.179,0.161,0.257,0.243,0.238,0.141,0.086,north,1.7,No
2021/02/01,02:30,0.180,0.160,0.257,0.242,0.238,0.142,0.086,north,2.5,No
2021/02/01,02:40,0.179,0.161,0.257,0.242,0.239,0.141,0.086,north,3.5,No
2021/02/01,02:50,0.179,0.160,0.257,0.243,0.239,0.142,0.085,north,3.7,No
2021/02/01,03:00,0.179,0.161,0.257,0.243,0.239,0.141,0.087,north-northwest,3.2,No
2021/02/01,03:10,0.180,0.160,0.256,0.243,0.239,0.141,0.086,north-northwest,3.7,No
2021/02/01,03:20,0.180,0.160,0.257,0.243,0.239,0.141,0.086,north-northwest,4.9,No
2021/02/01,03:30,0.180,0.161,0.256,0.243,0.239,0.142,0.086,northwest,4.6,No
2021/02/01,03:40,0.180,0.161,0.257,0.243,0.238,0.142,0.086,northwest,4.6,No
2021/02/01,03:50,0.180,0.160,0.257,0.243,0.238,0.142,0.086,northwest,3.8,No
2021/02/01,04:00,0.180,0.160,0.256,0.243,0.238,0.141,0.086,northwest,4.1,No
2021/02/01,04:10,0.179,0.159,0.256,0.243,0.239,0.141,0.086,northwest,5.6,No
2021/02/01,04:20,0.180,0.160,0.257,0.242,0.239,0.141,0.086,north-northwest,5.6,No
2021/02/01,04:30,0.180,0.161,0.256,0.243,0.238,0.141,0.086,northwest,5.1,No
2021/02/01,04:40,0.181,0.161,0.257,0.243,0.238,0.141,0.087,west-northwest,3.0,No
2021/02/01,04:50,0.180,0.159,0.257,0.243,0.238,0.142,0.086,south-southwest,1.1,No
2021/02/01,05:00,0.179,0.160,0.257,0.241,0.238,0.142,0.086,south-southeast,1.2,No
2021/02/01,05:10,0.180,0.161,0.256,0.242,0.238,0.141,0.087,south-southeast,0.9,No
2021/02/01,05:20,0.179,0.160,0.257,0.243,0.240,0.142,0.087,south,0.6,No
2021/02/01,05:30,0.179,0.160,0.256,0.242,0.239,0.141,0.086,south,1.2,No
2021/02/01,05:40,0.179,0.161,0.257,0.243,0.238,0.142,0.086,south,1.1,No
2021/02/01,05:50,0.179,0.160,0.257,0.242,0.238,0.141,0.086,south,1.0,No
2021/02/01,06:00,0.180,0.161,0.256,0.242,0.238,0.141,0.086,south-southeast,1.1,No
2021/02/01,06:10,0.181,0.160,0.256,0.243,0.238,0.141,0.086,south-southeast,1.4,No
2021/02/01,06:20,0.180,0.160,0.255,0.242,0.239,0.141,0.086,southeast,1.5,No
2021/02/01,06:30,0.180,0.159,0.257,0.242,0.238,0.141,0.086,southeast,1.0,No
2021/02/01,06:40,0.180,0.160,0.256,0.242,0.238,0.141,0.086,-,CALM,No
2021/02/01,06:50,0.179,0.161,0.256,0.242,0.239,0.141,0.086,-,CALM,No
2021/02/01,07:00,0.180,0.160,0.257,0.243,0.239,0.141,0.086,-,CALM,No
2021/02/01,07:10,0.178,0.160,0.256,0.243,0.238,0.142,0.086,-,CALM,No
2021/02/01,07:20,0.179,0.161,0.258,0.242,0.238,0.142,0.086,-,CALM,No
2021/02/01,07:30,0.180,0.160,0.256,0.243,0.239,0.141,0.086,-,CALM,No
2021/02/01,07:40,0.181,0.161,0.256,0.242,0.238,0.141,0.086,-,CALM,No
2021/02/01,07:50,0.179,0.161,0.256,0.242,0.239,0.141,0.086,-,CALM,No
2021/02/01,08:00,0.178,0.161,0.256,0.244,0.238,0.141,0.086,east,0.6,No
2021/02/01,08:10,0.179,0.160,0.257,0.242,0.238,0.142,0.086,south,0.9,No
2021/02/01,08:20,0.179,0.160,0.256,0.243,0.238,0.141,0.086,south,1.0,No
2021/02/01,08:30,0.179,0.160,0.256,0.242,0.239,0.141,0.086,south-southwest,0.7,No
2021/02/01,08:40,0.179,0.161,0.255,0.242,0.239,0.141,0.086,south-southeast,0.8,No
2021/02/01,08:50,0.180,0.160,0.256,0.242,0.238,0.142,0.086,-,CALM,No
2021/02/01,09:00,0.179,0.160,0.255,0.242,0.239,0.142,0.086,southeast,1.1,No
2021/02/01,09:10,0.179,0.160,0.256,0.242,0.238,0.142,0.085,south-southeast,1.9,No
2021/02/01,09:20,0.180,0.161,0.257,0.243,0.239,0.140,0.085,south-southeast,2.0,No
2021/02/01,09:30,0.179,0.159,0.257,0.242,0.238,0.141,0.086,south,2.7,No
2021/02/01,09:40,0.178,0.160,0.256,0.241,0.239,0.141,0.086,south-southwest,3.1,No
2021/02/01,09:50,0.180,0.161,0.255,0.243,0.237,0.142,0.086,south-southwest,2.1,No
2021/02/01,10:00,0.178,0.161,0.255,0.242,0.238,0.142,0.086,south,2.9,No
2021/02/01,10:10,0.179,0.160,0.252,0.243,0.238,0.142,0.086,south,3.6,No
2021/02/01,10:20,0.179,0.161,0.253,0.242,0.239,0.141,0.086,south,4.0,No
2021/02/01,10:30,0.178,0.160,0.253,0.243,0.238,0.141,0.085,south,3.8,No
2021/02/01,10:40,0.178,0.159,0.254,0.242,0.239,0.141,0.085,south-southeast,4.7,No
2021/02/01,10:50,0.179,0.159,0.253,0.241,0.238,0.141,0.085,south-southeast,4.3,No
2021/02/01,11:00,0.179,0.160,0.252,0.242,0.237,0.141,0.086,south-southeast,4.6,No
2021/02/01,11:10,0.179,0.159,0.253,0.243,0.240,0.141,0.086,south-southeast,5.6,No
2021/02/01,11:20,0.177,0.160,0.253,0.242,0.237,0.140,0.085,south-southeast,7.3,No
2021/02/01,11:30,0.179,0.160,0.253,0.242,0.239,0.141,0.086,south,7.1,No
2021/02/01,11:40,0.179,0.160,0.256,0.243,0.238,0.141,0.085,south,7.0,No
2021/02/01,11:50,0.179,0.160,0.257,0.242,0.238,0.142,0.086,south,6.0,No
2021/02/01,12:00,0.179,0.160,0.257,0.242,0.239,0.141,0.085,south-southwest,7.3,No
2021/02/01,12:10,0.179,0.160,0.256,0.243,0.240,0.141,0.085,south-southwest,6.0,Yes
2021/02/01,12:20,0.179,0.160,0.257,0.242,0.239,0.141,0.086,south-southwest,5.2,No
2021/02/01,12:30,0.179,0.161,0.254,0.243,0.239,0.141,0.084,south,5.6,No
2021/02/01,12:40,0.178,0.160,0.255,0.243,0.238,0.142,0.085,south,7.6,No
2021/02/01,12:50,0.178,0.160,0.256,0.242,0.237,0.142,0.085,south-southwest,6.4,No
2021/02/01,13:00,0.178,0.161,0.255,0.242,0.239,0.141,0.085,south,6.1,No
2021/02/01,13:10,0.178,0.158,0.256,0.242,0.239,0.141,0.085,south,6.3,No
2021/02/01,13:20,0.179,0.160,0.256,0.243,0.238,0.141,0.086,south,5.2,No
2021/02/01,13:30,0.178,0.160,0.254,0.243,0.241,0.141,0.085,south-southwest,7.1,No
2021/02/01,13:40,0.178,0.160,0.253,0.243,0.237,0.141,0.085,south-southwest,6.1,No
2021/02/01,13:50,0.179,0.160,0.250,0.241,0.239,0.142,0.085,south,5.8,No
2021/02/01,14:00,0.177,0.159,0.252,0.241,0.236,0.141,0.085,south,5.8,No
2021/02/01,14:10,0.178,0.160,0.253,0.243,0.239,0.141,0.086,south,6.4,No
2021/02/01,14:20,0.179,0.160,0.251,0.241,0.238,0.141,0.084,south,4.4,No
2021/02/01,14:30,0.178,0.161,0.252,0.242,0.239,0.141,0.085,south,5.6,No
2021/02/01,14:40,0.178,0.161,0.251,0.243,0.239,0.140,0.086,south,6.4,No
2021/02/01,14:50,0.179,0.159,0.252,0.242,0.239,0.141,0.085,south,4.9,No
2021/02/01,15:00,0.178,0.161,0.255,0.242,0.240,0.140,0.086,south,5.0,No
2021/02/01,15:10,0.177,0.160,0.254,0.243,0.238,0.141,0.086,south,5.7,No
2021/02/01,15:20,0.180,0.160,0.253,0.241,0.239,0.141,0.085,south,6.0,No
2021/02/01,15:30,0.178,0.161,0.256,0.242,0.239,0.141,0.085,south,5.7,No
2021/02/01,15:40,0.178,0.159,0.257,0.243,0.238,0.141,0.085,south-southwest,5.7,No
2021/02/01,15:50,0.179,0.160,0.255,0.242,0.240,0.141,0.086,south-southwest,6.5,No
2021/02/01,16:00,0.178,0.161,0.256,0.243,0.239,0.142,0.085,south,5.0,No
2021/02/01,16:10,0.178,0.159,0.256,0.242,0.238,0.141,0.085,south,3.7,No
2021/02/01,16:20,0.178,0.160,0.256,0.242,0.239,0.142,0.085,south-southwest,6.0,No
2021/02/01,16:30,0.178,0.161,0.256,0.241,0.239,0.141,0.085,south-southwest,7.9,No
2021/02/01,16:40,0.178,0.160,0.255,0.244,0.240,0.141,0.085,south-southwest,7.9,No
2021/02/01,16:50,0.178,0.161,0.256,0.243,0.239,0.141,0.085,south-southwest,6.4,No
2021/02/01,17:00,0.178,0.159,0.257,0.242,0.239,0.141,0.085,south-southwest,6.0,No
2021/02/01,17:10,0.179,0.160,0.256,0.244,0.239,0.141,0.085,south-southwest,5.6,No
2021/02/01,17:20,0.179,0.159,0.256,0.242,0.239,0.141,0.085,south-southwest,6.0,No
2021/02/01,17:30,0.178,0.161,0.257,0.242,0.240,0.141,0.085,south-southwest,4.7,No
2021/02/01,17:40,0.179,0.161,0.256,0.243,0.238,0.142,0.085,south-southwest,5.4,No
2021/02/01,17:50,0.177,0.160,0.255,0.243,0.240,0.141,0.085,southwest,3.2,No
2021/02/01,18:00,0.178,0.160,0.257,0.243,0.239,0.141,0.084,south-southwest,1.1,No
2021/02/01,18:10,0.179,0.161,0.257,0.243,0.240,0.141,0.085,west-southwest,2.9,No
2021/02/01,18:20,0.178,0.160,0.256,0.242,0.238,0.141,0.085,south-southwest,4.0,No
2021/02/01,18:30,0.179,0.161,0.256,0.242,0.239,0.141,0.085,south-southwest,2.9,No
2021/02/01,18:40,0.180,0.161,0.257,0.243,0.239,0.141,0.085,south-southwest,1.8,No
2021/02/01,18:50,0.179,0.161,0.256,0.242,0.239,0.141,0.085,south-southwest,1.7,No
2021/02/01,19:00,0.178,0.161,0.255,0.244,0.239,0.141,0.085,south,1.4,No
2021/02/01,19:10,0.179,0.162,0.256,0.242,0.240,0.141,0.085,south-southwest,0.7,No
2021/02/01,19:20,0.178,0.160,0.257,0.244,0.238,0.141,0.085,south-southeast,0.9,No
2021/02/01,19:30,0.179,0.160,0.255,0.243,0.238,0.141,0.085,southeast,2.3,No
2021/02/01,19:40,0.179,0.160,0.255,0.244,0.238,0.140,0.085,east,1.2,No
2021/02/01,19:50,0.179,0.160,0.256,0.244,0.239,0.141,0.085,south-southeast,0.9,No
2021/02/01,20:00,0.179,0.160,0.256,0.243,0.238,0.141,0.086,southeast,1.5,No
2021/02/01,20:10,0.179,0.161,0.257,0.242,0.238,0.141,0.086,-,CALM,No
2021/02/01,20:20,0.178,0.161,0.256,0.243,0.238,0.141,0.086,-,CALM,No
2021/02/01,20:30,0.179,0.160,0.256,0.243,0.238,0.141,0.085,-,CALM,No
2021/02/01,20:40,0.179,0.161,0.256,0.243,0.239,0.141,0.085,-,CALM,No
2021/02/01,20:50,0.178,0.162,0.255,0.243,0.238,0.142,0.085,east-southeast,1.3,No
2021/02/01,21:00,0.181,0.160,0.256,0.244,0.239,0.142,0.085,east-southeast,1.6,No
2021/02/01,21:10,0.179,0.161,0.256,0.242,0.237,0.142,0.087,southeast,2.4,No
2021/02/01,21:20,0.179,0.160,0.256,0.243,0.238,0.141,0.086,east-southeast,1.9,No
2021/02/01,21:30,0.180,0.161,0.257,0.243,0.239,0.142,0.086,southeast,2.8,No
2021/02/01,21:40,0.179,0.161,0.258,0.243,0.239,0.142,0.086,southeast,2.3,No
2021/02/01,21:50,0.180,0.160,0.256,0.244,0.239,0.141,0.085,south-southeast,2.0,No
2021/02/01,22:00,0.177,0.161,0.256,0.243,0.238,0.141,0.086,-,CALM,No
2021/02/01,22:10,0.178,0.161,0.256,0.242,0.238,0.141,0.086,south-southeast,0.7,No
2021/02/01,22:20,0.179,0.160,0.258,0.243,0.239,0.142,0.086,south-southwest,1.1,No
2021/02/01,22:30,0.180,0.161,0.255,0.242,0.239,0.142,0.086,south-southwest,1.4,No
2021/02/01,22:40,0.177,0.160,0.256,0.242,0.238,0.142,0.086,south-southeast,1.4,No
2021/02/01,22:50,0.179,0.160,0.256,0.242,0.239,0.142,0.086,south-southeast,2.2,No
2021/02/01,23:00,0.180,0.161,0.256,0.244,0.239,0.141,0.086,south,2.2,No
2021/02/01,23:10,0.179,0.161,0.256,0.242,0.238,0.141,0.086,south-southwest,3.0,No
2021/02/01,23:20,0.178,0.160,0.257,0.241,0.238,0.142,0.086,southwest,2.6,No
2021/02/01,23:30,0.179,0.160,0.257,0.243,0.239,0.141,0.086,south-southwest,4.4,No
2021/02/01,23:40,0.178,0.160,0.257,0.243,0.239,0.140,0.085,south-southwest,5.1,No
2021/02/01,23:50,0.180,0.161,0.255,0.243,0.238,0.141,0.086,south-southwest,4.1,No
